Location: Devore Heights
(34.2372°N, 117.4156°W)
Time: 07:41:04
(UTC+00:00)

Vanguard 1 Rocket - Pass Details

Date: 22 September 2024
Orbit: 650 x 4218 km, 34.3° (Epoch: 09 October)

Event Time Altitude Azimuth Distance (km) Brightness Sun altitude
Rises 06:33:08 0° 180° (S) 3,592 - -52.0°
Reaches altitude 10° 06:37:02 10° 153° (SSE) 3,098 - -52.4°
Maximum altitude 06:40:33 14° 125° (SE) 3,269 - -52.7°
Drops below altitude 10° 06:44:59 10° 99° (E) 4,120 - -53.1°
Exits shadow 06:51:23 - 80° (E) 5,819 11.4 -53.7°
Sets 06:52:04 0° 78° (ENE) 6,012 11.5 -53.7°
